Showing default

OPS 9344 (IDSCS 22), 3287

Orbit data source: Space-Track

OPS 9344 (IDSCS 22), 3287 is a payload satellite owned by SAMSO (US) in GEO that was launched on Thu, 13 Jun 1968 UTC via a TITAN IIIC launch vehicle from the Air Force Eastern Test Range (AFETR). Payload-class satellites include a variety of spacecraft equipped with specific instruments for various scientific and technological missions. These include communications satellites like Starlink; space stations such as the ISS; scientific satellites like the Hubble; Earth observation satellites from companies like Planet Labs, Umbra, and HawkEye 360; GPS; miniature CubeSats for education and research; and military/defense satellites.

Not visible in the next 10 days
Identifier
3287, 1968-050D
Orbit
GEO
Last TLE update
1 day ago
Origin
Manufacturer
Philco-Ford
Mission
Non-operational Defense Communications
Bus & Motor
IDCSP, Unknown motor
Mass
45 kg wet, 45 kg dry
Launch date (UTC)
1968-06-13 (57 years ago)
Launch vehicle
TITAN IIIC
Launch site
Air Force Eastern Test Range (AFETR)
Object type
Payload
Rocket body
Debris
Shape & HBR
Poly, 0.9 m
Radar Cross Section
0.926 m², Medium (>0.1 m² and < 1m²)

Expand to show TLE details & history

TLE from 1 day ago
0 OPS 9344 (IDSCS 22)
1  3287U 68050D   25180.85405027 -.00000067  00000-0  00000+0 0  9999
2  3287   6.4601  55.4786 0025569 134.5495  35.0606  1.07639817224046
Epoch: 2025-06-29T20:29Z
TLE epoch observation values (Epoch: 2025-06-29T20:29:49.943Z)
Latitude
1.14098°
Longitude
-0.29086°
Altitude
33,755.461 km
Speed
3.155 km/s
True Right ascension
15h 01m 21s
True Declination
1° 08' 23"
Sunlit
Object was in daylight at epoch
Visualization orbit readout
Latitude
-1.98675°
Longitude
172.02272°
Altitude
33,930.196 km
Speed
3.141 km/s
Apparent Right ascension
02h 46m 36s
Apparent Declination
-7° 03' 03"
Sunlit
Object is in daylight
Visualization observer readout
Local Sidereal Time
17:06:32
Azimuth
53.075° ENE
Elevation
-44.621°
Doppler factor
1
Orbital elements
Apogee altitude
33,943.743 km
Perigee altitude
33,738.071 km
Semi-major axis
40,219.044 km
Eccentricity
0.00256
Inclination
6.4601°
RAAN
55.4786°
Arg. of periapsis
134.5495°
True anomaly
Unknown
Mean anomaly
35.0606°
Eccentric anomaly
Unknown
Mean motion
0.26909 °/min
Orbital period
1,337.85 mins
BSTAR
0
Loading historical data...
3287 neighbors
Loading maneuver chart data...
Loading SW <> Apogee altitude chart data...
Loading historical data...
Loading historical data...
Loading historical data...
Loading historical data...
Loading historical data...
Loading historical data...
Loading historical data...

OPS 9344 (IDSCS 22) Visibility

Observer location: undefined°, undefined°

OPS 9344 (IDSCS 22) is likely not visible in the next few days
Span
Click to sort rows by Start time (UTC) header in descending order
Start Az.
Max El. time (UTC)
Max El. Az.
Max El.
End time (UTC)
End Az.
|